Change the Weather History Date:

Thursday, June 6, 2013

  Actual Average Record
Temperature  
Mean Temperature 72 °F -  
Max Temperature 77 °F 77 °F 92 °F (2008)
Min Temperature 64 °F 60 °F 44 °F (1998)
Cooling Degree Days 6    
Growing Degree Days 22 (Base 50)    
Moisture  
Dew Point 67 °F    
Average Humidity 88    
Maximum Humidity 100    
Minimum Humidity 69    
Precipitation  
Precipitation 0.19 in - - ()
Sea Level Pressure  
Sea Level Pressure 29.80 in    
Wind  
Wind Speed 5 mph (SW)    
Max Wind Speed 10 mph    
Max Gust Speed -    
Visibility 9 miles    
Events Rain    
Averages and records for this station are not official NWS values.
T = Trace of Precipitation, MM = Missing Value Source: NWS Daily Summary

Daily Weather History Graph

Daily Weather History Graph

Search for Another Location

Airport or City:

Trip Planner

Search our weather history database for the weather conditions in past years. The results will help you decide how hot, cold, wet, or windy it might be!

Date:

Astronomy

Jun. 06, 2013 Rise Set
Actual Time 6:21 AM EDT 9:03 PM EDT
Civil Twilight 5:50 AM EDT 9:34 PM EDT
Nautical Twilight 5:11 AM EDT 10:13 PM EDT
Astronomical Twilight 4:28 AM EDT 10:57 PM EDT
Moon 5:01 AM EDT (6/6) 7:26 PM EDT (6/6)
Length of Visible Light 15h 44m
Length of Day
14h 42m
Waning Crescent, 4% of the Moon is Illuminated
Jun 6
Waning Crescent
Jun 8
New
Jun 16
First Quarter
Jun 23
Full
Jun 30
Last Quarter

Hourly Weather History & Observations

Time (EDT) Temp. Dew Point Humidity Pressure Visibility Wind Dir Wind Speed Gust Speed Precip Events Conditions
12:58 AM 69.6 °F 67.3 °F 92% 29.84 in 10.0 mi SSE 3.5 mph - N/A   Mostly Cloudy
1:58 AM 69.4 °F 66.7 °F 91% 29.82 in 10.0 mi SSE 4.6 mph - N/A   Scattered Clouds
2:58 AM 69.6 °F 67.3 °F 92% 29.81 in 10.0 mi SSE 4.6 mph - N/A   Mostly Cloudy
3:14 AM 69.8 °F 68.0 °F 94% 29.82 in 10.0 mi SE 2.3 mph - N/A Rain Light Rain
3:58 AM 68.7 °F 67.6 °F 96% 29.81 in 10.0 mi South 4.6 mph - 0.00 in Rain Light Rain
4:58 AM 68.4 °F 68.2 °F 99% 29.79 in 7.0 mi South 6.9 mph - 0.05 in Rain Light Rain
5:58 AM 68.5 °F 68.5 °F 100% 29.79 in 6.0 mi South 5.8 mph - 0.06 in Rain Light Rain
6:38 AM 68.0 °F 68.0 °F 100% 29.79 in 5.0 mi SE 9.2 mph - N/A Rain Light Rain
6:48 AM 68.0 °F 68.0 °F 100% 29.78 in 9.0 mi SE 8.1 mph - N/A Rain Light Rain
6:58 AM 68.5 °F 68.5 °F 100% 29.76 in 7.0 mi ESE 6.9 mph - 0.07 in Rain Light Rain
7:56 AM 68.0 °F 68.0 °F 100% 29.78 in 9.0 mi South 2.3 mph - N/A Rain Light Rain
8:27 AM 68.0 °F 68.0 °F 100% 29.79 in 7.0 mi SW 3.5 mph - N/A   Overcast
8:39 AM 68.0 °F 68.0 °F 100% 29.80 in 10.0 mi West 4.6 mph - N/A   Mostly Cloudy
8:55 AM 68.5 °F 68.5 °F 100% 29.79 in 10.0 mi West 4.6 mph - 0.01 in   Mostly Cloudy
9:22 AM 69.8 °F 69.8 °F 100% 29.79 in 10.0 mi West 6.9 mph - N/A   Overcast
9:55 AM 69.1 °F 67.5 °F 95% 29.81 in 10.0 mi SW 4.6 mph - N/A   Mostly Cloudy
10:48 AM 69.8 °F 68.0 °F 94% 29.81 in 10.0 mi West 5.8 mph - N/A   Mostly Cloudy
10:55 AM 70.7 °F 67.1 °F 88% 29.80 in 10.0 mi West 6.9 mph - N/A   Overcast
11:38 AM 69.8 °F 66.2 °F 88% 29.82 in 10.0 mi WNW 10.4 mph - N/A   Overcast
11:55 AM 69.1 °F 65.8 °F 89% 29.81 in 10.0 mi West 6.9 mph - N/A   Overcast
12:35 PM 73.4 °F 66.2 °F 78% 29.82 in 5.0 mi West 8.1 mph - N/A   Mostly Cloudy
12:55 PM 72.9 °F 66.4 °F 80% 29.80 in 10.0 mi WSW 5.8 mph - N/A   Overcast
1:55 PM 72.9 °F 66.0 °F 79% 29.80 in 10.0 mi WSW 3.5 mph - 0.00 in   Overcast
1:58 PM 72.9 °F 66.0 °F 79% 29.80 in 10.0 mi WSW 3.5 mph - 0.00 in   Overcast
2:58 PM 75.4 °F 65.8 °F 72% 29.79 in 10.0 mi SW 4.6 mph - 0.00 in   Mostly Cloudy
3:58 PM 75.2 °F 67.5 °F 77% 29.79 in 10.0 mi SW 8.1 mph - N/A   Overcast
4:58 PM 76.3 °F 65.8 °F 70% 29.78 in 10.0 mi South 5.8 mph - N/A   Partly Cloudy
5:33 PM 77.0 °F 66.2 °F 69% 29.79 in 10.0 mi West 6.9 mph - N/A   Mostly Cloudy
5:38 PM 77.0 °F 66.2 °F 69% 29.79 in 10.0 mi WSW 6.9 mph - N/A   Mostly Cloudy
5:58 PM 76.8 °F 66.4 °F 70% 29.77 in 10.0 mi West 4.6 mph - N/A   Scattered Clouds
6:58 PM 75.7 °F 66.0 °F 72% 29.76 in 10.0 mi WNW 2.3 mph - N/A   Clear
7:58 PM 74.8 °F 66.4 °F 75% 29.76 in 10.0 mi South 2.3 mph - N/A   Clear
8:58 PM 71.1 °F 66.4 °F 85% 29.78 in 10.0 mi WSW 2.3 mph - N/A   Partly Cloudy
10:58 PM 66.7 °F 65.3 °F 95% 29.80 in 7.0 mi North 4.6 mph - N/A   Clear
11:35 PM 66.2 °F 64.4 °F 94% 29.80 in 5.0 mi NE 3.5 mph - N/A Rain Light Rain
11:42 PM 66.2 °F 64.4 °F 94% 29.80 in 6.0 mi NNE 3.5 mph - N/A   Clear
11:58 PM 64.8 °F 64.0 °F 98% 29.80 in 5.0 mi North 2.3 mph - 0.00 in   Clear